Location: Unspecified
(0.0000°N, 0.0000°E)
Time: 05:44:43
(UTC+00:00)

Vanguard 2 Rocket - Pass Details

Date: 12 October 2023
Orbit: 552 x 3312 km, 32.9° (Epoch: 06 December)

Event Time Altitude Azimuth Distance (km) Brightness Sun altitude
Rises 01:39:37 0° 208° (SSW) 2,755 - -60.9°
Reaches altitude 10° 01:42:30 10° 185° (S) 1,820 - -60.2°
Maximum altitude 01:45:04 17° 144° (SE) 1,494 - -59.6°
Drops below altitude 10° 01:47:52 10° 103° (ESE) 1,999 - -58.9°
Sets 01:51:16 0° 82° (E) 3,178 - -58.1°
